Location: Christianberg
(48.9086°N, 14.0209°E)
Time: 20:42:43
(UTC+00:00)

SL-4 R/B - Pass Details

Date: 23 October 2021
Orbit: 427 x 661 km, 51.6° (Epoch: 03 December)

Event Time Altitude Azimuth Distance (km) Brightness Sun altitude
Exits shadow 04:33:23 16° 277° (W) 1,548 3.6 -11.1°
Maximum altitude 04:36:21 36° 217° (SW) 890 2.8 -10.6°
Drops below altitude 10° 04:40:03 10° 150° (SSE) 1,765 5.1 -10.0°
Sets 04:42:17 0° 141° (SE) 2,607 6.2 -9.6°
